EW7144 Weather Reports


time (UTC)temp
F
wind
direction
speed
knots
gust
knots
rain 1hr
in
rain 24hr
in
rain mn
in
humidity
%
barometer
mb
20260502204903 52 154 0.0 0.0 0.00 0.01 0.01 91 1035.1
20260502204404 52 154 0.0 0.0 0.00 0.01 0.01 91 1035.1
20260502203904 51 154 0.0 0.0 0.00 0.01 0.01 91 1035.0
20260502203404 51 154 0.0 0.0 0.00 0.01 0.01 91 1035.0
20260502202904 50 154 0.0 0.0 0.00 0.01 0.01 91 1035.0
20260502202404 49 154 0.0 0.0 0.00 0.01 0.01 91 1034.9
20260502201906 49 154 0.0 0.0 0.00 0.01 0.01 91 1034.9
20260502201405 49 154 0.0 0.0 0.00 0.01 0.01 91 1034.9
20260502200904 49 154 0.0 0.0 0.00 0.01 0.01 91 1034.8
20260502200406 49 154 0.0 0.0 0.00 0.01 0.01 91 1034.8
20260502195404 49 154 0.0 0.0 0.00 0.01 0.01 91 1034.7
20260502194406 49 154 0.0 0.0 0.00 0.01 0.01 91 1034.6
20260502193405 49 155 0.0 0.0 0.00 0.01 0.01 91 1034.6
20260502192406 49 155 0.0 0.9 0.00 0.01 0.01 91 1034.5
20260502191905 49 154 0.0 0.0 0.00 0.01 0.01 91 1034.5
20260502191405 48 154 0.0 0.0 0.00 0.01 0.01 91 1034.5
20260502190905 48 154 0.0 0.0 0.00 0.01 0.01 91 1034.5
20260502190406 48 154 0.0 0.0 0.00 0.01 0.01 91 1034.5
20260502185904 48 154 0.0 0.0 0.00 0.01 0.01 91 1034.5
20260502185405 48 154 0.0 0.0 0.00 0.01 0.01 91 1034.5
20260502184905 48 154 0.0 0.0 0.00 0.01 0.01 91 1034.5
20260502184406 48 154 0.0 0.0 0.00 0.01 0.01 91 1034.5
20260502183904 49 154 0.0 0.0 0.00 0.01 0.01 91 1034.5
20260502183404 49 154 0.0 0.0 0.00 0.01 0.01 91 1034.4
20260502181906 49 154 0.0 0.9 0.00 0.01 0.01 91 1034.5
20260502181405 49 154 0.0 1.7 0.00 0.01 0.01 91 1034.4
20260502180904 49 164 0.0 0.9 0.00 0.01 0.01 91 1034.4
20260502180405 49 175 0.0 0.0 0.00 0.01 0.01 91 1034.5
20260502170404 49 175 0.0 0.0 0.00 0.01 0.01 90 1034.5
20260502163905 49 175 0.0 0.0 0.00 0.01 0.01 90 1034.6
20260502163406 49 175 0.0 0.9 0.00 0.01 0.01 90 1034.6
20260502162904 49 145 0.0 0.0 0.00 0.01 0.01 90 1034.5
20260502162405 49 145 0.0 0.9 0.00 0.01 0.01 90 1034.5
20260502161905 49 145 0.0 0.9 0.00 0.01 0.01 90 1034.5
20260502161406 49 145 0.0 0.0 0.00 0.01 0.01 90 1034.5
20260502160904 49 145 0.0 0.9 0.00 0.01 0.01 90 1034.4
20260502160404 49 145 0.0 0.9 0.00 0.01 0.01 90 1034.4
20260502151906 51 145 0.0 0.9 0.00 0.01 0.01 90 1034.5
20260502151404 51 145 0.9 1.7 0.00 0.01 0.01 90 1034.5
20260502150905 51 145 0.0 0.9 0.00 0.01 0.01 90 1034.5
20260502150406 51 145 0.9 1.7 0.00 0.01 0.01 90 1034.5
20260502130406 51 132 0.0 0.9 0.00 0.00 0.00 90 1034.3
20260502123410 51 131 0.0 0.9 0.00 0.00 0.00 90 1034.2
20260502122909 51 132 0.9 2.6 0.00 0.00 0.00 90 1034.3
20260502122409 50 134 0.9 2.6 0.00 0.00 0.00 90 1034.2
20260502121909 50 125 0.9 1.7 0.00 0.00 0.00 90 1034.1
20260502120909 50 117 0.0 0.0 0.00 0.00 0.00 90 1034.1
20260502120410 50 117 0.0 0.9 0.00 0.00 0.00 90 1034.0
20260502115909 51 117 0.0 0.9 0.00 0.00 0.00 90 1034.0
20260502115410 51 118 0.0 0.9 0.00 0.00 0.00 90 1033.9
20260502114908 51 118 0.0 0.9 0.00 0.00 0.00 90 1033.9
20260502113909 51 117 0.0 0.0 0.00 0.00 0.00 90 1033.8
20260502113410 51 118 0.0 0.9 0.00 0.00 0.00 90 1033.8
20260502112909 51 118 0.0 0.9 0.00 0.00 0.00 89 1033.7
20260502112411 51 118 0.0 0.9 0.00 0.00 0.00 89 1033.7
20260502111909 51 118 0.0 0.9 0.00 0.00 0.00 89 1033.7
20260502111409 51 118 0.0 0.9 0.00 0.00 0.00 89 1033.7
20260502110909 51 118 0.0 0.9 0.00 0.00 0.00 89 1033.7
20260502110409 51 118 0.0 0.9 0.00 0.00 0.00 89 1033.8
20260502105909 51 117 0.0 0.9 0.00 0.00 0.00 89 1033.8
20260502104410 51 118 0.0 0.0 0.00 0.00 0.00 89 1033.8
20260502102909 51 117 0.0 0.9 0.00 0.00 0.00 88 1033.7
20260502101909 51 117 0.0 0.9 0.00 0.00 0.00 88 1033.6
20260502101410 52 117 0.0 0.9 0.00 0.00 0.00 88 1033.6
20260502100909 52 117 0.0 0.9 0.00 0.00 0.00 88 1033.6
20260502100409 52 117 0.0 0.9 0.00 0.00 0.00 88 1033.5
20260502090906 53 117 0.0 0.9 0.00 0.00 0.00 88 1033.0
20260502090407 53 118 0.9 2.6 0.00 0.00 0.00 88 1032.9
20260502071408 53 101 0.0 0.9 0.00 0.00 0.00 86 1032.4
20260502070907 53 105 0.0 0.9 0.00 0.00 0.00 86 1032.3
20260502070407 53 106 0.9 1.7 0.00 0.00 0.00 86 1032.3
20260502065906 53 108 0.0 0.9 0.00 0.00 0.00 86 1032.3
20260502065407 54 101 0.0 1.7 0.00 0.00 0.00 86 1032.3
20260502064907 54 90 0.9 2.6 0.00 0.00 0.00 86 1032.2
20260502064407 54 113 0.0 1.7 0.00 0.00 0.00 86 1032.1
20260502063907 54 101 0.0 0.9 0.00 0.00 0.00 86 1032.0
20260502063407 54 103 0.0 0.9 0.00 0.00 0.00 86 1031.9
20260502062907 54 112 0.0 0.9 0.00 0.00 0.00 85 1031.9
20260502062406 54 112 0.0 2.6 0.00 0.00 0.00 85 1031.8
20260502061906 54 130 0.0 1.7 0.00 0.00 0.00 85 1031.7
20260502061407 55 119 0.0 0.9 0.00 0.00 0.00 85 1031.7
20260502055907 55 112 0.9 6.1 0.00 0.00 0.00 84 1031.7
20260502055406 55 121 1.7 4.3 0.00 0.00 0.00 84 1031.7
20260502053907 56 116 2.6 7.0 0.00 0.00 0.00 83 1031.5
20260502053406 56 106 1.7 6.1 0.00 0.00 0.00 82 1031.4
20260502052907 57 108 1.7 5.2 0.00 0.00 0.00 82 1031.4
20260502052407 57 135 0.9 4.3 0.00 0.00 0.00 82 1031.3
20260502051907 57 120 2.6 6.1 0.00 0.00 0.00 82 1031.4
20260502051406 57 82 2.6 7.8 0.00 0.00 0.00 81 1031.4
20260502050407 58 115 2.6 7.8 0.00 0.00 0.00 80 1031.3
20260502045906 58 101 3.5 7.8 0.00 0.00 0.00 80 1031.4
20260502045407 58 78 1.7 6.1 0.00 0.00 0.00 80 1031.3
20260502044907 58 83 4.3 7.8 0.00 0.00 0.00 79 1031.3
20260502044406 59 71 2.6 7.8 0.00 0.00 0.00 79 1031.3
20260502043907 59 104 3.5 7.8 0.00 0.00 0.00 79 1031.3
20260502043406 59 87 3.5 7.8 0.00 0.00 0.00 79 1031.2
20260502042906 59 83 2.6 8.7 0.00 0.00 0.00 79 1031.2
20260502041906 59 82 5.2 10.4 0.00 0.00 0.00 78 1031.2
20260502040907 60 96 3.5 8.7 0.00 0.00 0.00 78 1031.3
20260502040407 60 74 3.5 7.0 0.00 0.00 0.00 78 1031.3
20260502035907 60 96 5.2 10.4 0.00 0.00 0.00 77 1031.3
20260502035407 61 85 2.6 7.8 0.00 0.00 0.00 78 1031.4
20260502034907 60 103 1.7 6.1 0.00 0.00 0.00 79 1031.4
20260502034407 60 76 2.6 8.7 0.00 0.00 0.00 78 1031.4
20260502033907 60 126 3.5 7.8 0.00 0.00 0.00 78 1031.4
20260502033407 60 71 3.5 8.7 0.00 0.00 0.00 78 1031.4
20260502032906 61 94 2.6 10.4 0.00 0.00 0.00 77 1031.5
20260502032407 61 57 0.9 7.0 0.00 0.00 0.00 78 1031.5
20260502031407 61 64 2.6 7.8 0.00 0.00 0.00 77 1031.5
20260502030907 62 74 4.3 7.8 0.00 0.00 0.00 76 1031.5
20260502025907 62 37 2.6 7.0 0.00 0.00 0.00 76 1031.5
20260502025407 62 77 3.5 7.8 0.00 0.00 0.00 75 1031.5
20260502024906 63 62 1.7 4.3 0.00 0.00 0.00 75 1031.5
20260502023906 63 118 1.7 2.6 0.00 0.00 0.00 74 1031.6
20260502023406 63 37 0.0 5.2 0.00 0.00 0.00 74 1031.6
20260502022907 63 87 1.7 2.6 0.00 0.00 0.00 75 1031.7
20260502022406 62 72 1.7 4.3 0.00 0.00 0.00 75 1031.8
20260502021406 62 117 1.7 5.2 0.00 0.00 0.00 76 1031.9
20260502020407 62 51 1.7 5.2 0.00 0.00 0.00 77 1031.9
20260502015906 61 33 1.7 6.1 0.00 0.00 0.00 76 1032.0
20260502015407 62 53 2.6 8.7 0.00 0.00 0.00 75 1032.0
20260502014907 62 39 1.7 7.8 0.00 0.00 0.00 77 1032.0
20260502014407 61 60 2.6 6.1 0.00 0.00 0.00 77 1032.1
20260502013907 61 89 2.6 7.0 0.00 0.00 0.00 76 1032.2
20260502013406 62 37 2.6 6.1 0.00 0.00 0.00 75 1032.2
20260502012407 62 69 2.6 8.7 0.00 0.00 0.00 75 1032.3
20260502011906 63 53 2.6 10.4 0.00 0.00 0.00 75 1032.4
20260502011406 63 102 1.7 7.0 0.00 0.00 0.00 74 1032.5
20260502010907 63 103 1.7 6.1 0.00 0.00 0.00 73 1032.5
20260502010407 63 217 0.9 1.7 0.00 0.00 0.00 71 1032.5
20260502005906 63 242 0.9 1.7 0.00 0.00 0.00 73 1032.6
20260502005407 62 23 0.9 4.3 0.00 0.00 0.00 75 1032.7
20260502004407 63 7 3.5 5.2 0.00 0.00 0.00 73 1032.8
20260502003906 63 341 0.9 2.6 0.00 0.00 0.00 73 1032.9
20260502003406 63 238 0.9 2.6 0.00 0.00 0.00 73 1033.0
20260502002907 62 277 0.9 2.6 0.00 0.00 0.00 73 1033.1
20260502002407 62 214 0.9 2.6 0.00 0.00 0.00 72 1033.2
20260502001408 62 317 1.7 2.6 0.00 0.00 0.00 75 1033.5
20260502000906 62 353 0.9 2.6 0.00 0.00 0.00 75 1033.5
20260502000409 62 350 1.7 2.6 0.00 0.00 0.00 76 1033.6
20260501235907 62 342 1.7 2.6 0.00 0.00 0.00 76 1033.7
20260501235408 62 341 1.7 5.2 0.00 0.00 0.00 76 1033.7
20260501234906 62 233 0.9 2.6 0.00 0.00 0.00 76 1033.7
20260501233906 62 355 0.9 2.6 0.00 0.00 0.00 77 1033.8
20260501233406 61 269 1.7 2.6 0.00 0.00 0.00 77 1033.9
20260501232906 61 230 0.9 2.6 0.00 0.00 0.00 77 1033.9
20260501232408 61 242 0.9 2.6 0.00 0.00 0.00 76 1034.0
20260501231907 61 245 0.9 2.6 0.00 0.00 0.00 76 1034.0
20260501231409 61 260 0.9 2.6 0.00 0.00 0.00 77 1034.0
20260501230907 61 275 0.9 2.6 0.00 0.00 0.00 77 1034.0
20260501225906 60 359 0.9 1.7 0.00 0.00 0.00 78 1034.1
20260501224907 60 359 0.9 2.6 0.00 0.00 0.00 78 1034.2
20260501224409 60 234 1.7 2.6 0.00 0.00 0.00 79 1034.2
20260501223407 60 344 0.9 2.6 0.00 0.00 0.00 79 1034.1
20260501222408 60 261 0.9 2.6 0.00 0.00 0.00 80 1034.2
20260501221907 59 240 1.7 2.6 0.00 0.00 0.00 81 1034.2
20260501221407 59 252 0.9 2.6 0.00 0.00 0.00 82 1034.3
20260501220906 58 11 0.9 1.7 0.00 0.00 0.00 83 1034.3
20260501220408 58 12 0.9 1.7 0.00 0.00 0.00 85 1034.3
20260501215907 57 25 0.9 1.7 0.00 0.00 0.00 86 1034.4
20260501215407 57 25 0.9 1.7 0.00 0.00 0.00 87 1034.5
20260501213906 55 39 0.0 0.9 0.00 0.00 0.00 89 1034.6
20260501212907 55 35 0.0 0.9 0.00 0.00 0.00 90 1034.7
20260501212407 55 35 0.0 0.0 0.00 0.00 0.00 90 1034.7
20260501211906 54 35 0.0 0.0 0.00 0.00 0.00 90 1034.7
20260501210907 53 35 0.0 0.9 0.00 0.00 0.00 90 1034.7
20260501210408 53 35 0.0 0.9 0.00 0.00 0.00 90 1034.7
20260501205906 53 35 0.0 0.9 0.00 0.00 0.00 90 1034.7
20260501205406 53 35 0.0 0.9 0.00 0.00 0.00 90 1034.7